Regional Weather Roundup
Issued by NWS

Home | Current Version | Previous Version | Text Only | Print | Product List | Glossary On
Versions: 1 2 3 4 5 6 7 8 9 10 11 12 13 14 15 16 17 18 19 20 21 22 23 24 25 26 27 28 29 30 31 32 33 34 35 36 37 38 39 40 41 42 43 44 45 46 47 48 49 50
000
ASUS44 KEWX 311010
RWRTX
SOUTH TEXAS REGIONAL WEATHER ROUNDUP
NATIONAL WEATHER SERVICE AUSTIN/SAN ANTONIO TX
500 AM CDT THU JUL 31 2014

NOTE: "FAIR" INDICATED FEW OR NO CLOUDS BELOW 12,000 FEET WITH NO
SIGNIFICANT WEATHER AND/OR OBSTRUCTIONS TO VISIBILITY.

* - THESE STATIONS ARE NOT NWS OR FAA STATIONS...AND ARE NOT SUBJECT
    TO NWS AND FAA QUALITY CONTROL.

TXZ171-172-183>190-311100-
TEXAS HILL COUNTRY AND EDWARDS PLATEAU

CITY           SKY/WX    TMP DP  RH WIND       PRES   REMARKS
JUNCTION       MOCLDY    78  69  73 CALM      29.98R
*LLANO         PTCLDY    79  70  73 S7        29.99S
BURNET         CLOUDY    77  69  76 S7        29.98S
*HORSESHOE BAY MOCLDY    78  69  74 S5        29.96S
*KERRVILLE     MOCLDY    76  72  86 S9        29.99F
*FREDERICKSBRG CLOUDY    76  69  79 S3        29.99S
*ROCKSPRINGS   MOCLDY    75  70  83 SE9       30.03S
*BOERNE STAGE  CLOUDY    75  70  83 S5        30.00R
*CASTROVILLE   CLOUDY    79  71  76 SE6       29.97S
HONDO          CLOUDY    78  72  81 E6        29.98S
*UVALDE        MOCLDY    78  73  85 E6        29.96R
DEL RIO        CLEAR     81  72  74 SE14      29.90F
LAUGHLIN AFB   CLEAR     80  72  76 SE12      29.92F
CARRIZO SPRGS  CLEAR     77  72  83 E3        29.90R
$$

TXZ173-191>194-202-209-217>225-228-311100-
CENTRAL AND SOUTH CENTRAL TEXAS

CITY           SKY/WX    TMP DP  RH WIND       PRES   REMARKS
GEORGETOWN     CLOUDY    79  72  78 S14       29.95S
AUSTIN/BERGSTM CLOUDY    78  72  81 S7        29.94F
AUSTIN/MABRY   CLOUDY    78  72  81 VRB6      29.95F
*AUSTIN/EXEC   CLOUDY    75  72  88 S6        29.95S
*LAGO VISTA    CLOUDY    77  71  81 S7G16     29.97S
SAN MARCOS     CLOUDY    79  70  73 S8        29.96S
NEW BRAUNFELS  CLOUDY    79  73  82 S9        29.94F
RANDOLPH AFB   MOCLDY    78  72  81 S9        29.95F
PT SAN ANTONIO MOCLDY    79  73  82 SE9       29.94S
SAN ANTONIO    MOCLDY    80  73  79 S10       29.96S
STINSON FIELD  PTCLDY    79  73  82 SE7       29.93F
*PLEASANTON    PTCLDY    77  73  85 SE3       29.94S
*LA GRANGE     PTCLDY    77  75  94 S7        29.92S
*GIDDINGS      PTCLDY    75  72  90 CALM      29.99R
*GONZALES      CLOUDY    77  74  89 S5        29.93F
$$

TXZ163>164-176>182-195>201-210>213-226-227-235-311100-
SOUTHEAST TEXAS

CITY           SKY/WX    TMP DP  RH WIND       PRES   REMARKS
COLLEGE STN    PTCLDY    77  73  87 S7        29.95S
*BRYAN         MOCLDY    76  73  87 S6        29.95S
*CALDWELL      PTCLDY    73  73 100 CALM      29.98S
*CROCKETT      PTCLDY    79  75  89 CALM      30.02R
*BRENHAM       PTCLDY    76  72  87 S5        29.96S
HUNTSVILLE     PTCLDY    78  73  84 S5        29.97R
CONROE         MOCLDY    74  73  97 CALM      29.97S
HOUSTON BUSH   MOCLDY    80  74  81 S3        29.95S
HOUSTON HOBBY  MOCLDY    80  74  81 S3        29.95S
*HOUSTON SW AP MOCLDY   N/A N/A N/A CALM      29.97R
PEARLAND       MOCLDY    80  75  84 CALM      29.97R
HOUSTON HOOKS  CLOUDY    79  76  90 CALM      29.96R
ELLINGTON FLD  MOCLDY    81  77  89 S6        29.98R
SUGAR LAND     MOCLDY    78  74  87 S8        29.95S
*HOUSTON EXEC  MOCLDY    75  75 100 SE5       29.96S
*CLEVELAND MUN MOCLDY    73  72  98 CALM      29.98R FOG
*WHARTON       PTCLDY    72  71  97 CALM      29.96S
$$

TXZ214>216-236>238-311100-
THE UPPER TEXAS COAST

CITY           SKY/WX    TMP DP  RH WIND       PRES   REMARKS
*ORANGE        PTCLDY    74  74 100 CALM      29.98S
PORT ARTHUR    PTCLDY    77  72  84 S5        29.96S
GALVESTON      MOCLDY    83  76  79 S12       29.95F HX  91
ANGLETON       CLEAR     75  73  93 S5        29.95F
*BAY CITY      PTCLDY    76  76 100 S3        29.94F
PALACIOS       MOCLDY    83  74  74 S15       29.93F
$$

TXZ229>234-239>247-311100-
TEXAS COASTAL BEND AND RIO GRANDE PLAINS

CITY           SKY/WX    TMP DP  RH WIND       PRES   REMARKS
VICTORIA       PTCLDY    78  75  90 SE5       29.95F
*BEEVILLE      MOCLDY    80  77  91 S9        29.94S
ROCKPORT       CLEAR     81  77  88 S8        29.94S
*PORT ARANSAS  PTCLDY    79  77  94 S6        29.94R
*PORT LAVACA   PTCLDY    77  74  92 SE6       29.94F
*INGLESIDE     PTCLDY    83  76  81 S12       29.94R HX  91
CORPUS CHRISTI PTCLDY    80  76  87 S10       29.93S
CORPUS NAS     CLEAR     81  79  94 S12       29.93S HX  90
*ROBSTOWN      NOT AVBL
ALICE          PTCLDY    80  76  87 S9        29.92S
KINGSVILLE NAS PTCLDY    82  78  88 S16       29.93S HX  91
COTULLA        CLEAR     79  73  82 SE9       29.91F
*FAITH RANCH   CLEAR     81  70  69 SE8       29.90F
LAREDO         CLEAR     82  73  74 SE16      29.92S
$$

TXZ248>255-311100-
DEEP SOUTH TEXAS

CITY           SKY/WX    TMP DP  RH WIND       PRES   REMARKS
BROWNSVILLE    CLEAR     79  77  94 S9        29.93F
PORT ISABEL    PTCLDY    82  76  81 S8        29.93S
*SOUTH PADRE     N/A     79  77  94 S7        29.94R
HARLINGEN      CLEAR     79  77  94 SE9       29.92S
*HEBBRONVILLE  CLEAR     79  73  83 SE9       29.93S
MCALLEN        PTCLDY    80  76  87 SE17G23   29.91F
*WESLACO       MOCLDY    81  74  81 S9        29.92R
FALFURRIAS     MOCLDY    72  72 100 SE9       29.92S
EDINBURG       PTCLDY    82  75  78 S12       29.92R
*ZAPATA        NOT AVBL
$$

TXZ213>215-236>238-242>244-246-247-251-254-255-311100-
CMAN STATIONS

STATION/POSITION TIME  TEMP    WIND        PRES    WAVE
                       AIR SEA DIR/SP/G            HT/PER
                 (UTC) (F)     (DEG/KT/KT) (MB)    (FT/S)
SABINE PASS      1000   81 86  180/  6/  8 1014.7
SEA RIM ST PARK  1000   83     160/ 10/ 13 1015.1
NORTH JETTY/GLS  1000   83 88  190/ 13/ 15   N/A
EAGLE POINT      1000   82 86  200/ 11/ 15 1014.2
MORGANS POINT    1000   83 90  220/  5/  7 1014.3
MISSION/ARANSAS  0900   81     170/ 11     1015.0
PORT O`CONNOR    1000          160/  6/  8   N/A
PORT ARANSAS     1000   80 81  170/ 11/ 12 1014.2
MALAQUITE BEACH  1000   79 80  160/ 11/ 12 1012.8
BAFFIN BAY       1000   79 80  160/  9/ 12 1013.4
PORT ISABEL      1000   81 82  150/  8/ 11 1014.0
$$

GMZ080-GMZ150>470-311100-
OFFSHORE BUOY REPORTS

STATION/POSITION TIME  TEMP    WIND        PRES    WAVE
                       AIR SEA DIR/SP/G            HT/PER
                 (UTC) (F)     (DEG/KT/KT) (MB)    (FT/S)
90 E PT ARANSAS  1000   83 84  180/ 14/ 16 1014.5    2/ 4
35 NE PT MANSFLD 1000   83 83  170/ 17/ 21 1013.2    4/ 5
200 E PT ISABEL  1000   84 86  190/  8/ 10 1014.7    1
$$


USA.gov is the U.S. government's official web portal to all federal, state and local government web resources and services.